When you browse on this site, cookies collect data to enhance your experience and personalize the content and advertising you see.
Visit our Privacy Policy to learn more. By continuing to use the site, you agree to this use of cookies and data.
  • En España
  • Lista de países
  • Para 7 días
  • Temperatura del agua
  • El tiempo en el mapa
  • Informadores
  • user-avatar
    Iniciar sesión

    Tiempo cada hora Aleksandria

    Hoy, 23 Octubre, Miércoles

    Tiempo Temperatura Precipitaciones Viento Presión Humedad
    00:00 +24°C° 0.1 mm 1 mps 758 mmHg 73%
    01:00 +24°C° 0.1 mm 1 mps 758 mmHg 73%
    02:00 +24°C° 0.1 mm 2 mps 758 mmHg 73%
    03:00 +23°C° 0.1 mm 1 mps 758 mmHg 72%
    04:00 +23°C° 0.1 mm 1 mps 758 mmHg 71%
    05:00 +23°C° 0.1 mm 1 mps 758 mmHg 70%
    06:00 +24°C° 0.3 mm 2 mps 758 mmHg 66%
    07:00 +25°C° 0.3 mm 2 mps 758 mmHg 63%
    08:00 +26°C° 0.3 mm 2 mps 759 mmHg 59%
    09:00 +27°C° 0 mm 2 mps 759 mmHg 53%
    10:00 +28°C° 0 mm 3 mps 759 mmHg 47%
    11:00 +29°C° 0 mm 3 mps 759 mmHg 42%
    12:00 +29°C° 0 mm 3 mps 758 mmHg 42%
    13:00 +29°C° 0 mm 4 mps 758 mmHg 43%
    14:00 +28°C° 0 mm 4 mps 757 mmHg 44%
    15:00 +28°C° 0 mm 5 mps 758 mmHg 47%
    16:00 +27°C° 0 mm 5 mps 758 mmHg 50%
    17:00 +27°C° 0 mm 5 mps 758 mmHg 53%
    18:00 +26°C° 0 mm 5 mps 758 mmHg 56%
    19:00 +25°C° 0 mm 5 mps 758 mmHg 59%
    20:00 +25°C° 0 mm 4 mps 759 mmHg 61%
    21:00 +25°C° 0 mm 4 mps 759 mmHg 63%
    22:00 +24°C° 0 mm 3 mps 759 mmHg 64%
    23:00 +24°C° 0 mm 3 mps 759 mmHg 65%

    Mañana, 24 Octubre, Jueves

    Tiempo Temperatura Precipitaciones Viento Presión Humedad
    00:00 +24°C° 0 mm 3 mps 759 mmHg 65%
    01:00 +24°C° 0 mm 3 mps 759 mmHg 65%
    02:00 +24°C° 0 mm 3 mps 758 mmHg 65%
    03:00 +24°C° 0.3 mm 3 mps 758 mmHg 65%
    04:00 +23°C° 0.3 mm 4 mps 758 mmHg 65%
    05:00 +23°C° 0.3 mm 4 mps 758 mmHg 66%
    06:00 +23°C° 0.3 mm 4 mps 759 mmHg 62%
    07:00 +25°C° 0.3 mm 4 mps 759 mmHg 59%
    08:00 +26°C° 0.3 mm 4 mps 759 mmHg 56%
    09:00 +27°C° 0.3 mm 3 mps 759 mmHg 52%
    10:00 +27°C° 0.3 mm 3 mps 759 mmHg 48%
    11:00 +28°C° 0.3 mm 3 mps 759 mmHg 44%
    12:00 +28°C° 0.1 mm 4 mps 759 mmHg 45%
    13:00 +28°C° 0.1 mm 5 mps 758 mmHg 46%
    14:00 +28°C° 0.1 mm 5 mps 758 mmHg 48%
    15:00 +28°C° 0 mm 6 mps 758 mmHg 50%
    16:00 +27°C° 0 mm 6 mps 758 mmHg 52%
    17:00 +26°C° 0 mm 6 mps 758 mmHg 54%
    18:00 +26°C° 0 mm 6 mps 758 mmHg 56%
    19:00 +26°C° 0 mm 5 mps 759 mmHg 58%
    20:00 +25°C° 0 mm 5 mps 759 mmHg 60%
    21:00 +25°C° 0 mm 5 mps 759 mmHg 61%
    22:00 +25°C° 0 mm 5 mps 759 mmHg 62%
    23:00 +25°C° 0 mm 4 mps 759 mmHg 63%

    Pasado mañana, 25 Octubre, Viernes

    Tiempo Temperatura Precipitaciones Viento Presión Humedad
    00:00 +25°C° 0.2 mm 4 mps 759 mmHg 63%
    01:00 +25°C° 0.2 mm 4 mps 759 mmHg 62%
    02:00 +23°C° 0.2 mm 5 mps 759 mmHg 62%
    03:00 +23°C° 0.1 mm 4 mps 759 mmHg 62%
    04:00 +23°C° 0.1 mm 4 mps 758 mmHg 62%
    05:00 +23°C° 0.1 mm 4 mps 758 mmHg 62%
    06:00 +25°C° 0.4 mm 5 mps 758 mmHg 60%
    07:00 +25°C° 0.4 mm 5 mps 759 mmHg 57%
    08:00 +26°C° 0.4 mm 5 mps 759 mmHg 55%
    09:00 +27°C° 0.1 mm 5 mps 759 mmHg 52%
    10:00 +28°C° 0.1 mm 5 mps 759 mmHg 49%
    11:00 +28°C° 0.1 mm 5 mps 759 mmHg 46%
    12:00 +28°C° 0.1 mm 6 mps 759 mmHg 46%
    13:00 +28°C° 0.1 mm 6 mps 759 mmHg 47%
    14:00 +28°C° 0.1 mm 7 mps 758 mmHg 47%
    15:00 +28°C° 0.1 mm 7 mps 758 mmHg 50%
    16:00 +27°C° 0.1 mm 7 mps 759 mmHg 53%
    17:00 +26°C° 0.1 mm 7 mps 759 mmHg 56%
    18:00 +26°C° 0 mm 7 mps 759 mmHg 58%
    19:00 +26°C° 0 mm 6 mps 759 mmHg 60%
    20:00 +24°C° 0 mm 6 mps 760 mmHg 63%
    21:00 +24°C° 0 mm 6 mps 760 mmHg 63%
    22:00 +24°C° 0 mm 6 mps 760 mmHg 64%
    23:00 +24°C° 0 mm 6 mps 760 mmHg 64%

    26 Octubre, Sábado

    Tiempo Temperatura Precipitaciones Viento Presión Humedad
    00:00 +24°C° 0 mm 6 mps 760 mmHg 66%
    01:00 +24°C° 0 mm 6 mps 760 mmHg 68%
    02:00 +24°C° 0 mm 6 mps 759 mmHg 70%
    03:00 +23°C° 0 mm 5 mps 760 mmHg 70%
    04:00 +23°C° 0 mm 5 mps 760 mmHg 70%
    05:00 +23°C° 0 mm 4 mps 760 mmHg 70%
    06:00 +25°C° 0 mm 4 mps 760 mmHg 66%
    07:00 +26°C° 0 mm 4 mps 761 mmHg 63%
    08:00 +26°C° 0 mm 4 mps 761 mmHg 59%
    09:00 +27°C° 0 mm 4 mps 761 mmHg 56%
    10:00 +28°C° 0 mm 4 mps 761 mmHg 53%
    11:00 +29°C° 0 mm 4 mps 761 mmHg 50%
    12:00 +29°C° 0 mm 4 mps 761 mmHg 50%
    13:00 +29°C° 0 mm 4 mps 761 mmHg 50%
    14:00 +29°C° 0 mm 5 mps 760 mmHg 50%
    15:00 +28°C° 0 mm 5 mps 760 mmHg 54%
    16:00 +27°C° 0 mm 4 mps 760 mmHg 57%
    17:00 +26°C° 0 mm 4 mps 760 mmHg 61%
    18:00 +26°C° 0 mm 4 mps 761 mmHg 65%
    19:00 +25°C° 0 mm 4 mps 761 mmHg 69%
    20:00 +25°C° 0 mm 4 mps 761 mmHg 74%
    21:00 +23°C° 0 mm 4 mps 761 mmHg 76%
    22:00 +23°C° 0 mm 4 mps 761 mmHg 79%
    23:00 +23°C° 0 mm 4 mps 761 mmHg 81%

    27 Octubre, Domingo

    Tiempo Temperatura Precipitaciones Viento Presión Humedad
    00:00 +23°C° 0 mm 4 mps 761 mmHg 81%
    01:00 +23°C° 0 mm 4 mps 761 mmHg 82%
    02:00 +22°C° 0 mm 3 mps 761 mmHg 82%
    03:00 +22°C° 0 mm 3 mps 761 mmHg 81%
    04:00 +22°C° 0 mm 3 mps 761 mmHg 79%
    05:00 +22°C° 0 mm 3 mps 761 mmHg 78%
    06:00 +24°C° 0 mm 3 mps 761 mmHg 74%
    07:00 +25°C° 0 mm 3 mps 761 mmHg 70%
    08:00 +25°C° 0 mm 3 mps 761 mmHg 66%
    09:00 +26°C° 0 mm 3 mps 761 mmHg 62%
    10:00 +27°C° 0 mm 4 mps 761 mmHg 57%
    11:00 +28°C° 0 mm 4 mps 762 mmHg 53%
    12:00 +28°C° 0 mm 4 mps 761 mmHg 53%
    13:00 +28°C° 0 mm 5 mps 760 mmHg 54%
    14:00 +28°C° 0 mm 5 mps 760 mmHg 54%
    15:00 +27°C° 0 mm 5 mps 760 mmHg 58%
    16:00 +26°C° 0 mm 5 mps 760 mmHg 61%
    17:00 +25°C° 0 mm 4 mps 760 mmHg 65%
    18:00 +25°C° 0 mm 4 mps 760 mmHg 67%
    19:00 +23°C° 0 mm 4 mps 760 mmHg 70%
    20:00 +23°C° 0 mm 4 mps 760 mmHg 72%
    21:00 +24°C° 0 mm 3 mps 760 mmHg 73%
    22:00 +22°C° 0 mm 3 mps 761 mmHg 73%
    23:00 +22°C° 0 mm 3 mps 761 mmHg 73%

    28 Octubre, Lunes

    Tiempo Temperatura Precipitaciones Viento Presión Humedad
    00:00 +22°C° 0 mm 3 mps 760 mmHg 73%
    01:00 +22°C° 0 mm 3 mps 760 mmHg 73%
    02:00 +22°C° 0 mm 3 mps 760 mmHg 73%
    03:00 +22°C° 0 mm 3 mps 760 mmHg 73%
    04:00 +22°C° 0 mm 3 mps 760 mmHg 74%
    05:00 +22°C° 0 mm 3 mps 760 mmHg 74%
    06:00 +22°C° 0 mm 3 mps 760 mmHg 70%
    07:00 +24°C° 0 mm 3 mps 760 mmHg 66%
    08:00 +25°C° 0 mm 3 mps 760 mmHg 62%
    09:00 +26°C° 0 mm 3 mps 761 mmHg 58%
    10:00 +26°C° 0 mm 3 mps 761 mmHg 53%
    11:00 +27°C° 0 mm 4 mps 761 mmHg 49%
    12:00 +27°C° 0 mm 4 mps 760 mmHg 48%
    13:00 +27°C° 0 mm 4 mps 760 mmHg 47%
    14:00 +28°C° 0 mm 5 mps 760 mmHg 47%
    15:00 +27°C° 0 mm 4 mps 760 mmHg 50%
    16:00 +26°C° 0 mm 4 mps 760 mmHg 54%
    17:00 +25°C° 0 mm 4 mps 759 mmHg 57%
    18:00 +23°C° 0 mm 4 mps 760 mmHg 61%
    19:00 +24°C° 0 mm 3 mps 760 mmHg 65%
    20:00 +22°C° 0 mm 3 mps 760 mmHg 69%
    21:00 +22°C° 0 mm 3 mps 761 mmHg 71%
    22:00 +23°C° 0 mm 2 mps 761 mmHg 72%
    23:00 +23°C° 0 mm 2 mps 761 mmHg 73%

    29 Octubre, Martes

    Tiempo Temperatura Precipitaciones Viento Presión Humedad
    00:00 +21°C° 0 mm 2 mps 761 mmHg 74%
    01:00 +21°C° 0 mm 2 mps 761 mmHg 75%
    02:00 +22°C° 0 mm 1 mps 761 mmHg 76%
    03:00 +21°C° 0 mm 2 mps 760 mmHg 76%
    04:00 +21°C° 0 mm 2 mps 760 mmHg 76%
    05:00 +21°C° 0 mm 2 mps 760 mmHg 76%
    06:00 +21°C° 0 mm 2 mps 761 mmHg 72%
    07:00 +23°C° 0 mm 2 mps 761 mmHg 68%
    08:00 +24°C° 0 mm 1 mps 761 mmHg 64%
    09:00 +25°C° 0 mm 2 mps 761 mmHg 59%
    10:00 +26°C° 0 mm 2 mps 761 mmHg 53%
    11:00 +27°C° 0 mm 2 mps 761 mmHg 48%
    12:00 +27°C° 0 mm 3 mps 761 mmHg 49%
    13:00 +27°C° 0 mm 4 mps 761 mmHg 51%
    14:00 +27°C° 0 mm 4 mps 760 mmHg 52%
    15:00 +26°C° 0 mm 4 mps 760 mmHg 55%
    16:00 +26°C° 0 mm 4 mps 760 mmHg 59%
    17:00 +25°C° 0 mm 4 mps 760 mmHg 62%
    18:00 +23°C° 0 mm 4 mps 761 mmHg 64%
    19:00 +23°C° 0 mm 4 mps 761 mmHg 66%
    20:00 +22°C° 0 mm 4 mps 761 mmHg 68%
    21:00 +22°C° 0 mm 3 mps 761 mmHg 68%
    22:00 +22°C° 0 mm 3 mps 761 mmHg 69%
    23:00 +21°C° 0 mm 2 mps 761 mmHg 69%
    Mostrar más